Weather History for KMFR - October, 2013

Change the Weather History Date:

Sunday, October 27, 2013

  Actual Average Record
Temperature  
Mean Temperature 48 °F 51 °F  
Max Temperature 59 °F 63 °F 81 °F (1987)
Min Temperature 36 °F 40 °F 25 °F (1972)
Degree Days  
Heating Degree Days 17 14  
Month to date heating degree days 297 233  
Since 1 July heating degree days 381 302  
Cooling Degree Days 0 0  
Month to date cooling degree days 0 8  
Year to date cooling degree days 1057 827  
Moisture  
Dew Point 38 °F    
Average Humidity 68    
Maximum Humidity 92    
Minimum Humidity 43    
Precipitation  
Precipitation 0.01 in 0.06 in 1.37 in (1961)
Month to date precipitation 0.20 0.89  
Year to date precipitation 7.51 11.60  
Snow  
Snow 0.00 in 0.00 in - ()
Month to date snowfall 0.0 0.0  
Since 1 July snowfall 0.0 0.0  
Snow Depth 0.00 in    
Sea Level Pressure  
Sea Level Pressure 29.93 in    
Wind  
Wind Speed 5 mph (NW)    
Max Wind Speed 21 mph    
Max Gust Speed 28 mph    
Visibility 10 miles    
Events Rain    
T = Trace of Precipitation, MM = Missing Value Source: NWS Daily Summary

Daily Weather History Graph

Daily Weather History Graph

Search for Another Location

Airport or City:

Trip Planner

Search our weather history database for the weather conditions in past years. The results will help you decide how hot, cold, wet, or windy it might be!

Date:

Astronomy

Oct. 27, 2013 Rise Set
Actual Time 7:39 AM PDT 6:10 PM PDT
Civil Twilight 7:10 AM PDT 6:39 PM PDT
Nautical Twilight 6:37 AM PDT 7:12 PM PDT
Astronomical Twilight 6:04 AM PDT 7:45 PM PDT
Moon 12:33 AM PDT (10/27) 2:30 PM PDT (10/27)
Length of Visible Light 11h 29m
Length of Day
10h 31m
Last Quarter, 42% of the Moon is Illuminated
Oct 27
Last Quarter
Nov 3
New
Nov 9
First Quarter
Nov 17
Full
Nov 25
Last Quarter

Hourly Weather History & Observations

Time (PDT) Temp. Windchill Dew Point Humidity Pressure Visibility Wind Dir Wind Speed Gust Speed Precip Events Conditions
12:53 AM 48.0 °F - 39.0 °F 71% 30.07 in 10.0 mi Calm Calm - N/A   Clear
1:53 AM 41.0 °F - 36.0 °F 82% 30.07 in 9.0 mi Calm Calm - N/A   Clear
2:53 AM 43.0 °F - 37.0 °F 80% 30.04 in 9.0 mi Calm Calm - N/A   Clear
3:53 AM 42.1 °F 40.2 °F 37.0 °F 82% 30.04 in 9.0 mi ESE 3.5 mph - N/A   Clear
4:53 AM 42.1 °F - 36.0 °F 79% 30.03 in 10.0 mi Calm Calm - N/A   Clear
5:53 AM 37.0 °F - 33.1 °F 86% 30.04 in 10.0 mi Calm Calm - N/A   Clear
6:53 AM 37.9 °F - 35.1 °F 89% 30.05 in 7.0 mi Calm Calm - N/A   Partly Cloudy
7:53 AM 36.0 °F - 33.1 °F 89% 30.06 in 6.0 mi Calm Calm - N/A   Clear
8:53 AM 39.0 °F - 36.0 °F 89% 30.08 in 8.0 mi Calm Calm - N/A   Clear
9:53 AM 46.0 °F - 39.0 °F 76% 30.04 in 10.0 mi Calm Calm - N/A   Clear
10:53 AM 51.1 °F - 41.0 °F 68% 29.99 in 10.0 mi Calm Calm - N/A   Clear
11:53 AM 55.9 °F - 41.0 °F 57% 29.93 in 10.0 mi NNE 4.6 mph - N/A   Clear
12:53 PM 57.0 °F - 42.1 °F 57% 29.87 in 10.0 mi NW 4.6 mph - N/A   Mostly Cloudy
1:53 PM 55.0 °F - 46.9 °F 74% 29.89 in 10.0 mi NW 12.7 mph - 0.01 in   Mostly Cloudy
2:53 PM 57.0 °F - 41.0 °F 55% 29.86 in 10.0 mi WNW 15.0 mph 21.9 mph N/A   Mostly Cloudy
3:53 PM 57.9 °F - 37.0 °F 46% 29.82 in 10.0 mi NW 13.8 mph 27.6 mph N/A   Mostly Cloudy
4:53 PM 57.0 °F - 35.1 °F 44% 29.81 in 10.0 mi NW 15.0 mph 20.7 mph N/A   Overcast
5:53 PM 53.1 °F - 37.9 °F 57% 29.82 in 10.0 mi WNW 11.5 mph - N/A   Overcast
6:53 PM 52.0 °F - 39.0 °F 61% 29.81 in 10.0 mi NW 5.8 mph - N/A   Overcast
7:53 PM 51.1 °F - 39.0 °F 63% 29.81 in 10.0 mi NW 6.9 mph - N/A   Overcast
8:53 PM 50.0 °F - 39.9 °F 68% 29.80 in 10.0 mi WNW 6.9 mph - 0.00 in   Overcast
9:53 PM 48.9 °F - 41.0 °F 74% 29.78 in 10.0 mi NW 3.5 mph - N/A   Overcast
10:53 PM 50.0 °F - 39.9 °F 68% 29.78 in 10.0 mi WNW 4.6 mph - N/A   Overcast
11:53 PM 48.9 °F - 41.0 °F 74% 29.76 in 10.0 mi WNW 4.6 mph - 0.00 in Rain Light Rain